Flag for Turkey Weather past 2 weeks in Izmir, Turkey

Now
97 °F

Sunny.


Feels Like: 94 °F
Forecast: 71 / 106 °F
Wind: 16 mph from North

Location: Izmir / Adnan Menderes

Current Time: Jul 28, 2015 at 6:48:34 PM

Latest Report: Jul 28, 2015 at 6:20 PM


Visibility: 10 mi

Pressure: 29.65 "Hg

Humidity: 22%

Dew point: 52 °F

Location of IzmirLocation

Historic Weather in Izmir — Graph

°F

Izmir temperature yesterday

Maximum temperature yesterday: 99 °F (at 1:50 PM)
Minimum temperature yesterday: 70 °F (at 5:50 AM)
Average temperature yesterday: 85 °F

Past Weeks' High & Low Weather Summary

 TemperatureHumidityPressure
High102 °F (Jul 22, 2:50 PM)94% (Jul 24, 4:20 AM)29.92 "Hg (Jul 24, 4:20 AM)
Low66 °F (Jul 26, 4:50 AM)14% (Jul 22, 3:20 PM)29.65 "Hg (Jul 20, 5:20 PM)
Average85 °F42%29.77 "Hg
* Reported Jul 13 5:20 PM — Jul 28 5:50 PM, Izmir, Weather by CustomWeather, © 2015

Note: Actual official high and low records may vary slightly from our data, if they occured in-between our weather recording intervals... More about our weather records

Advertising

Izmir weather history for previous 24 hours

 ConditionsComfort  
Time TempWeatherWind HumidityBarometerVisibility
5:50 PM
Tue, Jul 28
99 °FSunny.18 mph22%29.65 "Hg10 mi
5:20 PM99 °FSunny.17 mph22%29.65 "Hg10 mi
4:50 PM99 °FSunny.20 mph22%29.65 "Hg10 mi
4:20 PM100 °FSunny.16 mph22%29.65 "Hg10 mi
3:50 PM99 °FSunny.15 mph24%29.65 "Hg10 mi
3:20 PM99 °FSunny.15 mph24%29.68 "Hg10 mi
2:50 PM99 °FPassing clouds.13 mph24%29.68 "HgN/A
2:20 PM99 °FSunny.12 mph24%29.68 "Hg10 mi
1:50 PM99 °FPassing clouds.13 mph25%29.68 "HgN/A
1:20 PM97 °FSunny.14 mph23%29.68 "Hg10 mi
12:50 PM97 °FSunny.13 mph27%29.68 "Hg10 mi
12:20 PM95 °FSunny.14 mph26%29.68 "Hg10 mi
11:50 AM95 °FSunny.12 mph28%29.71 "Hg10 mi
11:20 AM93 °FPassing clouds.9 mph32%29.71 "HgN/A
10:50 AM91 °FSunny.5 mph36%29.71 "Hg10 mi
10:20 AM90 °FSunny.2 mph46%29.71 "Hg10 mi
9:50 AM86 °FSunny.2 mph49%29.71 "Hg10 mi
9:20 AM84 °FSunny.2 mph51%29.71 "Hg10 mi
8:50 AM81 °FPassing clouds.3 mph54%29.71 "HgN/A
8:20 AM79 °FPassing clouds.3 mph58%29.71 "HgN/A
7:50 AM77 °FSunny.No wind57%29.71 "Hg10 mi
7:20 AM73 °FSunny.2 mph65%29.71 "Hg10 mi
6:50 AM70 °FClear.No wind73%29.71 "Hg10 mi
6:20 AM70 °FClear.1 mph73%29.68 "Hg10 mi
5:50 AM70 °FClear.2 mph73%29.68 "Hg10 mi
5:20 AM70 °FClear.6 mph73%29.68 "Hg10 mi
4:50 AM70 °FClear.1 mph73%29.68 "Hg10 mi
4:20 AM72 °FClear.2 mph69%29.68 "Hg10 mi
3:50 AM72 °FClear.No wind73%29.68 "Hg10 mi
3:20 AM72 °FClear.2 mph69%29.68 "Hg10 mi
2:50 AM73 °FClear.No wind65%29.68 "Hg10 mi
2:20 AM75 °FClear.2 mph65%29.68 "Hg10 mi
1:50 AM75 °FClear.2 mph61%29.68 "Hg10 mi
12:50 AM77 °FClear.2 mph65%29.68 "Hg10 mi
12:20 AM79 °FPassing clouds.5 mph54%29.68 "HgN/A
11:50 PM
Mon, Jul 27
81 °FPassing clouds.3 mph51%29.68 "HgN/A
11:20 PM84 °FPassing clouds.5 mph40%29.68 "HgN/A
10:50 PM84 °FClear.7 mph40%29.68 "Hg10 mi
10:20 PM86 °FClear.8 mph38%29.68 "Hg10 mi
9:50 PM86 °FClear.13 mph35%29.68 "Hg10 mi
9:20 PM88 °FSunny.16 mph31%29.65 "Hg10 mi
8:50 PM88 °FSunny.15 mph33%29.65 "Hg10 mi
8:20 PM90 °FSunny.16 mph29%29.65 "Hg10 mi
7:50 PM91 °FSunny.18 mph30%29.65 "Hg10 mi
7:20 PM93 °FSunny.18 mph26%29.65 "Hg10 mi
6:50 PM95 °FSunny.17 mph28%29.65 "Hg10 mi
6:20 PM95 °FSunny.18 mph26%29.65 "Hg10 mi
Weather by CustomWeather, © 2015

See weather overviewHow to use our weather pages